{"data":{"norad_id":65171,"intl_designator":"2025-174H","name":"HULIANWANG DIGUI-65","alt_names":[],"object_type":"PAYLOAD","status":"ACTIVE","operator":null,"country":"PRC","launch_date":"2025-08-13","launch_site_code":"WSC","launch_vehicle":null,"mission":null,"orbit_class":"UNKNOWN","rcs_meters":null,"size_class":null,"mass_kg":null,"dimensions":null,"purposes":[],"wikipedia_slug":null,"has_3d_model":false,"image_url":null,"decayed_at":null,"tle_current":{"epoch":"2026-09-21T21:04:16.376448Z","epoch_age_seconds":46540,"freshness":"FRESH","line1":"1 65171U 25174H   26264.87796732  .00000025  00000+0  24132-4 0  9990","line2":"2 65171  86.4910 219.0928 0002289  77.7550 282.3840 13.24400021 53588","mean_motion":13.24400021,"eccentricity":0.0002289,"inclination_deg":86.491,"raan_deg":219.0928,"arg_perigee_deg":77.755,"mean_anomaly_deg":282.384,"bstar":2.4132e-5,"rev_number":5358,"period_min":108.72847909748,"perigee_km":1166.2327889805,"apogee_km":1169.6873922286,"semimajor_km":7546.0970906045,"source":"CELESTRAK","updated_at":"2026-09-22T09:00:30.165375Z"}}}